FW2392 Weather Reports


time (UTC)temp
C
wind
direction
speed
KPH
gust
KPH
rain 1hr
cm
rain 24hr
cm
rain mn
cm
humidity
%
barometer
mb
20260504081803 9 191 4.8 9.7 0.00 0.00 0.00 55 1014.1
20260504080923 9 185 3.2 9.7 0.00 0.00 0.00 54 1014.2
20260504050024 8 233 4.8 8.0 0.00 0.00 0.00 54 1014.7
20260504045403 8 258 3.2 8.0 0.00 0.00 0.00 54 1014.6
20260504044503 7 294 1.6 4.8 0.00 0.00 0.00 57 1014.6
20260504043604 7 294 0.0 3.2 0.00 0.00 0.00 61 1014.7
20260504042703 7 294 0.0 3.2 0.00 0.00 0.00 60 1014.5
20260504041803 7 294 0.0 3.2 0.00 0.00 0.00 59 1014.4
20260504040903 8 294 1.6 3.2 0.00 0.00 0.00 58 1014.3
20260504040003 8 294 0.0 4.8 0.00 0.00 0.00 55 1014.2
20260504035424 8 294 1.6 4.8 0.00 0.00 0.00 56 1014.2
20260504034524 9 294 0.0 3.2 0.00 0.00 0.00 50 1014.2
20260504033624 8 294 1.6 3.2 0.00 0.00 0.00 51 1014.3
20260504032703 8 294 0.0 4.8 0.00 0.00 0.00 51 1014.4
20260504031803 8 294 1.6 4.8 0.00 0.00 0.00 52 1014.4
20260504030903 8 294 0.0 3.2 0.00 0.00 0.00 55 1014.4
20260504030003 7 0 0.0 0.0 0.00 0.00 0.00 56 1014.3
20260504025403 7 0 0.0 3.2 0.00 0.00 0.00 57 1014.4
20260504024503 7 294 0.0 3.2 0.00 0.00 0.00 59 1014.3
20260504023624 8 294 1.6 3.2 0.00 0.00 0.00 60 1014.3
20260504022703 7 0 0.0 3.2 0.00 0.00 0.00 58 1014.2
20260504021803 8 294 0.0 3.2 0.00 0.00 0.00 57 1014.2
20260504020903 8 294 1.6 3.2 0.00 0.00 0.00 57 1014.1
20260504020004 8 294 0.0 1.6 0.00 0.00 0.00 55 1014.1
20260504015403 8 0 0.0 0.0 0.00 0.00 0.00 56 1014.1
20260504014503 8 0 0.0 0.0 0.00 0.00 0.00 55 1014.0
20260504013602 9 0 0.0 3.2 0.00 0.00 0.00 54 1014.1
20260504012703 10 294 1.6 3.2 0.00 0.00 0.00 54 1014.0
20260504011803 10 294 1.6 3.2 0.00 0.00 0.00 48 1013.9
20260504010903 10 294 0.0 3.2 0.00 0.00 0.00 48 1013.8
20260504010002 10 294 0.0 4.8 0.00 0.00 0.00 49 1013.7
20260504005403 11 294 0.0 4.8 0.00 0.00 0.00 50 1013.8
20260504004524 11 294 3.2 4.8 0.00 0.00 0.00 47 1013.7
20260504003603 11 294 1.6 3.2 0.00 0.00 0.00 49 1013.7
20260504002704 11 294 0.0 3.2 0.00 0.00 0.00 47 1013.7
20260504001803 12 0 0.0 3.2 0.00 0.00 0.00 47 1013.6
20260504000903 12 294 1.6 4.8 0.00 0.00 0.00 46 1013.6
20260504000003 12 294 1.6 4.8 0.00 0.00 0.00 44 1013.5
20260503235403 12 294 1.6 6.4 0.00 0.00 0.00 44 1013.4
20260503234504 13 294 3.2 9.7 0.00 0.00 0.00 44 1013.3
20260503233603 13 286 3.2 11.3 0.00 0.00 0.00 41 1013.4
20260503232703 14 268 3.2 11.3 0.00 0.00 0.00 41 1013.3
20260503231803 14 295 3.2 17.7 0.00 0.00 0.00 41 1013.1
20260503230903 15 285 6.4 17.7 0.00 0.00 0.00 39 1013.0
20260503230003 15 293 6.4 17.7 0.00 0.00 0.00 39 1012.9
20260503225403 15 290 6.4 17.7 0.00 0.00 0.00 22 1013.0
20260503224503 15 300 8.0 27.4 0.00 0.00 0.00 38 1013.0
20260503223604 15 281 11.3 27.4 0.00 0.00 0.00 25 1013.0
20260503222703 15 284 9.7 22.5 0.00 0.00 0.00 39 1013.1
20260503221803 15 291 11.3 22.5 0.00 0.00 0.00 23 1013.1
20260503220924 15 302 8.0 20.9 0.00 0.00 0.00 39 1013.3
20260503220003 15 293 8.0 22.5 0.00 0.00 0.00 39 1013.2
20260503215403 15 285 11.3 22.5 0.00 0.00 0.00 38 1013.2
20260503214503 15 296 9.7 27.4 0.00 0.00 0.00 39 1013.2
20260503213603 15 298 9.7 27.4 0.00 0.00 0.00 39 1013.1
20260503212703 15 303 8.0 27.4 0.00 0.00 0.00 40 1013.0
20260503211803 15 278 9.7 27.4 0.00 0.00 0.00 38 1013.1
20260503210903 15 299 9.7 24.1 0.00 0.00 0.00 40 1013.2
20260503210003 14 297 8.0 24.1 0.00 0.00 0.00 39 1013.2
20260503205403 15 301 9.7 24.1 0.00 0.00 0.00 39 1013.1
20260503204503 15 297 12.9 22.5 0.00 0.00 0.00 23 1013.1
20260503203604 15 313 9.7 38.6 0.00 0.00 0.00 39 1013.1
20260503202702 14 294 12.9 38.6 0.00 0.00 0.00 22 1013.1
20260503201803 14 305 9.7 32.2 0.00 0.00 0.00 43 1013.2
20260503200903 13 278 12.9 32.2 0.00 0.00 0.00 39 1013.4
20260503200003 15 292 9.7 32.2 0.00 0.00 0.00 39 1013.4
20260503195403 15 304 8.0 22.5 0.00 0.00 0.00 40 1013.4
20260503194503 14 295 9.7 27.4 0.00 0.00 0.00 40 1013.6
20260503193603 14 327 9.7 24.1 0.00 0.00 0.00 40 1013.7
20260503192703 14 305 9.7 35.4 0.00 0.00 0.00 39 1014.0
20260503191803 14 290 9.7 35.4 0.00 0.00 0.00 46 1013.9
20260503190903 13 293 14.5 35.4 0.00 0.00 0.00 39 1013.9
20260503190024 13 280 12.9 24.1 0.00 0.00 0.00 40 1014.1
20260503185403 13 281 12.9 24.1 0.00 0.00 0.00 40 1013.9
20260503184503 13 312 9.7 30.6 0.00 0.00 0.00 43 1014.5
20260503183603 13 302 11.3 30.6 0.00 0.00 0.00 28 1014.5
20260503182703 12 308 11.3 38.6 0.00 0.00 0.00 43 1014.7
20260503181803 12 274 14.5 38.6 0.00 0.00 0.00 28 1014.7
20260503180903 12 285 14.5 32.2 0.00 0.00 0.00 46 1014.8
20260503180003 12 286 16.1 29.0 0.00 0.00 0.00 44 1014.7
20260503175403 12 302 14.5 29.0 0.00 0.00 0.00 44 1014.7
20260503174503 12 294 9.7 29.0 0.00 0.00 0.00 42 1014.7
20260503173603 12 280 14.5 29.0 0.00 0.00 0.00 45 1014.7
20260503172703 11 324 11.3 29.0 0.00 0.00 0.00 45 1014.8
20260503171803 11 297 11.3 35.4 0.00 0.00 0.00 48 1014.8
20260503170903 11 284 11.3 35.4 0.00 0.00 0.00 51 1015.0
20260503150903 8 316 11.3 29.0 0.00 0.00 0.00 52 1015.6
20260503130903 6 324 9.7 22.5 0.00 0.00 0.00 59 1015.7